Location: Goettingen
(51.5300°N, 9.9433°E)
Time: 19:36:14
(UTC+02:00)

ISS - Pass Details

Date: 23 September 2021
Orbit: 419 x 423 km, 51.6° (Epoch: 20 September)

Event Time Altitude Azimuth Distance (km) Brightness Sun altitude
Rises 21:46:19 0° 274° (W) 2,368 1.1 -23.1°
Reaches altitude 10° 21:48:24 10° 275° (W) 1,504 -0.1 -23.4°
Enters shadow 21:50:41 40° 276° (W) 637 -2.5 -23.7°
